Terug naar catalogus

OPS 4682 DEB

ActiefPO
NORAD 52784·DEBRIS·🇺🇸 United States

Gelanceerd Apr 3, 1965 vanaf Vandenberg Space Force Base

Loading…

Volgende Passages (komende 24 uur)

TLE

VersSource: Space-Track

Epoch: Sep 13, 2026, 18:29 UTC

1 52784U 65027HA  26256.77049886  .00000669  00000-0  22666-2 0  9991
2 52784  90.2507   9.6130 0032545 218.4236 141.4567 12.97768616553076

Volg OPS 4682 DEB in realtime met AllMySat

Download on the App Store